sat.trackr.live / text

‹ back to catalog

STARLINK-32507

NORAD 62132 · 2024-222U

PAYLOAD ACTIVE UNKNOWN

§ Identity

Operator
Country
US
Launch date
2024-11-27
Launch site
AFETR
Launch vehicle
Mass (kg)
RCS (m²)

Purposes: comms

External: N2YO · Heavens-Above · Gunter

§ Orbital elements

Epoch: 2026-05-25T04:34:48.563040Z

Period
94.27 min
Inclination
42.9996°
Eccentricity
0.0001112
Mean motion
15.27598243 rev/d
Perigee alt
482.2 km
Apogee alt
483.8 km
Semi-major
6,861.1 km
B*
7.8183e-4
RAAN
63.7298°
Arg perigee
278.8130°
Mean anomaly
81.2596°
Rev number
8,430

§ Raw data

STARLINK-325071 62132U 24222U   26145.19083985  .00021326  00000+0  78183-3 0  99902 62132  42.9996  63.7298 0001112 278.8130  81.2596 15.27598243 84306

JSON: /api/v1/satellites/62132 · /tle

For live sub-satellite position, see the globe view (requires WebGL).

§ Visibility from observer

Set your observer location to see the next 7 days of passes ≥ 10°. The values pass through the URL so the page stays shareable.

No JS? Fill the form by hand. The geolocation button needs JavaScript.